date,time,water_lv
2023-11-01,00:00:00,206.31
2023-11-01,00:10:00,206.31
2023-11-01,00:20:00,206.32
2023-11-01,00:30:00,206.33
2023-11-01,00:40:00,206.34
2023-11-01,00:50:00,206.34
2023-11-01,01:00:00,206.35
2023-11-01,01:10:00,206.36
2023-11-01,01:20:00,206.36
2023-11-01,01:30:00,206.37
2023-11-01,01:40:00,206.37
2023-11-01,01:50:00,206.38
2023-11-01,02:00:00,206.38
2023-11-01,02:10:00,206.39
2023-11-01,02:20:00,206.39
2023-11-01,02:30:00,206.39
2023-11-01,02:40:00,206.39
2023-11-01,02:50:00,206.4
2023-11-01,03:00:00,206.4
2023-11-01,03:10:00,206.4
2023-11-01,03:20:00,206.41
2023-11-01,03:30:00,206.41
2023-11-01,03:40:00,206.41
2023-11-01,03:50:00,206.41
2023-11-01,04:00:00,206.42
2023-11-01,04:10:00,206.42
2023-11-01,04:20:00,206.42
2023-11-01,04:30:00,206.42
2023-11-01,04:40:00,206.42
2023-11-01,04:50:00,206.42
2023-11-01,05:00:00,206.42
2023-11-01,05:10:00,206.42
2023-11-01,05:20:00,206.42
2023-11-01,05:30:00,206.42
2023-11-01,05:40:00,206.42
2023-11-01,05:50:00,206.42
2023-11-01,06:00:00,206.42
2023-11-01,06:10:00,206.42
2023-11-01,06:20:00,206.41
2023-11-01,06:30:00,206.41
2023-11-01,06:40:00,206.41
2023-11-01,06:50:00,206.41
2023-11-01,07:00:00,206.4
2023-11-01,07:10:00,206.4
2023-11-01,07:20:00,206.39
2023-11-01,07:30:00,206.39
2023-11-01,07:40:00,206.38
2023-11-01,07:50:00,206.38
2023-11-01,08:00:00,206.37
2023-11-01,08:10:00,206.37
2023-11-01,08:20:00,206.37
2023-11-01,08:30:00,206.36
2023-11-01,08:40:00,206.36
2023-11-01,08:50:00,206.35
2023-11-01,09:00:00,206.34
2023-11-01,09:10:00,206.34
2023-11-01,09:20:00,206.34
2023-11-01,09:30:00,206.33
2023-11-01,09:40:00,206.32
2023-11-01,09:50:00,206.32
2023-11-01,10:00:00,206.31
2023-11-01,10:10:00,206.31
2023-11-01,10:20:00,206.3
2023-11-01,10:30:00,206.29
2023-11-01,10:40:00,206.28
2023-11-01,10:50:00,206.28
2023-11-01,11:00:00,206.27
2023-11-01,11:10:00,206.26
2023-11-01,11:20:00,206.25
2023-11-01,11:30:00,206.25
2023-11-01,11:40:00,206.24
2023-11-01,11:50:00,206.23
2023-11-01,12:00:00,206.22
2023-11-01,12:10:00,206.22
2023-11-01,12:20:00,206.21
2023-11-01,12:30:00,206.2
2023-11-01,12:40:00,206.19
2023-11-01,12:50:00,206.18
2023-11-01,13:00:00,206.17
2023-11-01,13:10:00,206.17
2023-11-01,13:20:00,206.16
2023-11-01,13:30:00,206.15
2023-11-01,13:40:00,206.14
2023-11-01,13:50:00,206.13
2023-11-01,14:00:00,206.12
2023-11-01,14:10:00,206.11
2023-11-01,14:20:00,206.1
2023-11-01,14:30:00,206.09
2023-11-01,14:40:00,206.08
2023-11-01,14:50:00,206.07
2023-11-01,15:00:00,206.06
2023-11-01,15:10:00,206.05
2023-11-01,15:20:00,206.04
2023-11-01,15:30:00,206.03
2023-11-01,15:40:00,206.02
2023-11-01,15:50:00,206.01
2023-11-01,16:00:00,206
2023-11-01,16:10:00,205.99
2023-11-01,16:20:00,205.98
2023-11-01,16:30:00,205.97
2023-11-01,16:40:00,205.96
2023-11-01,16:50:00,205.95
2023-11-01,17:00:00,205.94
2023-11-01,17:10:00,205.93
2023-11-01,17:20:00,205.92
2023-11-01,17:30:00,205.91
2023-11-01,17:40:00,205.9
2023-11-01,17:50:00,205.89
2023-11-01,18:00:00,205.88
2023-11-01,18:10:00,205.87
2023-11-01,18:20:00,205.86
2023-11-01,18:30:00,205.84
2023-11-01,18:40:00,205.83
2023-11-01,18:50:00,205.82
2023-11-01,19:00:00,205.81
2023-11-01,19:10:00,205.8
2023-11-01,19:20:00,205.79
2023-11-01,19:30:00,205.78
2023-11-01,19:40:00,205.77
2023-11-01,19:50:00,205.76
2023-11-01,20:00:00,205.75
2023-11-01,20:10:00,205.74
2023-11-01,20:20:00,205.72
2023-11-01,20:30:00,205.71
2023-11-01,20:40:00,205.7
2023-11-01,20:50:00,205.69
2023-11-01,21:00:00,205.68
2023-11-01,21:10:00,205.67
2023-11-01,21:20:00,205.66
2023-11-01,21:30:00,205.65
2023-11-01,21:40:00,205.64
2023-11-01,21:50:00,205.63
2023-11-01,22:00:00,205.61
2023-11-01,22:10:00,205.6
2023-11-01,22:20:00,205.59
2023-11-01,22:30:00,205.58
2023-11-01,22:40:00,205.57
2023-11-01,22:50:00,205.56
2023-11-01,23:00:00,205.54
2023-11-01,23:10:00,205.53
2023-11-01,23:20:00,205.52
2023-11-01,23:30:00,205.51
2023-11-01,23:40:00,205.5
2023-11-01,23:50:00,205.49
2023-11-02,00:00:00,205.48
2023-11-02,00:10:00,205.47
2023-11-02,00:20:00,205.46
2023-11-02,00:30:00,205.45
2023-11-02,00:40:00,205.43
2023-11-02,00:50:00,205.43
2023-11-02,01:00:00,205.41
2023-11-02,01:10:00,205.4
2023-11-02,01:20:00,205.4
2023-11-02,01:30:00,205.38
2023-11-02,01:40:00,205.37
2023-11-02,01:50:00,205.36
2023-11-02,02:00:00,205.35
2023-11-02,02:10:00,205.34
2023-11-02,02:20:00,205.33
2023-11-02,02:30:00,205.32
2023-11-02,02:40:00,205.31
2023-11-02,02:50:00,205.3
2023-11-02,03:00:00,205.28
2023-11-02,03:10:00,205.27
2023-11-02,03:20:00,205.26
2023-11-02,03:30:00,205.25
2023-11-02,03:40:00,205.24
2023-11-02,03:50:00,205.23
2023-11-02,04:00:00,205.22
2023-11-02,04:10:00,205.21
2023-11-02,04:20:00,205.2
2023-11-02,04:30:00,205.19
2023-11-02,04:40:00,205.18
2023-11-02,04:50:00,205.17
2023-11-02,05:00:00,205.16
2023-11-02,05:10:00,205.15
2023-11-02,05:20:00,205.14
2023-11-02,05:30:00,205.13
2023-11-02,05:40:00,205.12
2023-11-02,05:50:00,205.11
2023-11-02,06:00:00,205.1
2023-11-02,06:10:00,205.09
2023-11-02,06:20:00,205.08
2023-11-02,06:30:00,205.07
2023-11-02,06:40:00,205.05
2023-11-02,06:50:00,205.05
2023-11-02,07:00:00,205.04
2023-11-02,07:10:00,205.03
2023-11-02,07:20:00,205.02
2023-11-02,07:30:00,205
2023-11-02,07:40:00,204.99
2023-11-02,07:50:00,204.98
2023-11-02,08:00:00,204.97
2023-11-02,08:10:00,204.96
2023-11-02,08:20:00,204.95
2023-11-02,08:30:00,204.94
2023-11-02,08:40:00,204.93
2023-11-02,08:50:00,204.92
2023-11-02,09:00:00,204.91
2023-11-02,09:10:00,204.9
2023-11-02,09:20:00,204.89
2023-11-02,09:30:00,204.88
2023-11-02,09:40:00,204.86
2023-11-02,09:50:00,204.86
2023-11-02,10:00:00,204.85
2023-11-02,10:10:00,204.84
2023-11-02,10:20:00,204.82
2023-11-02,10:30:00,204.82
2023-11-02,10:40:00,204.81
2023-11-02,10:50:00,204.8
2023-11-02,11:00:00,204.79
2023-11-02,11:10:00,204.78
2023-11-02,11:20:00,204.77
2023-11-02,11:30:00,204.76
2023-11-02,11:40:00,204.75
2023-11-02,11:50:00,204.73
2023-11-02,12:00:00,204.73
2023-11-02,12:10:00,204.72
2023-11-02,12:20:00,204.71
2023-11-02,12:30:00,204.7
2023-11-02,12:40:00,204.69
2023-11-02,12:50:00,204.68
2023-11-02,13:00:00,204.67
2023-11-02,13:10:00,204.66
2023-11-02,13:20:00,204.65
2023-11-02,13:30:00,204.64
2023-11-02,13:40:00,204.63
2023-11-02,13:50:00,204.62
2023-11-02,14:00:00,204.62
2023-11-02,14:10:00,204.61
2023-11-02,14:20:00,204.6
2023-11-02,14:30:00,204.59
2023-11-02,14:40:00,204.58
2023-11-02,14:50:00,204.57
2023-11-02,15:00:00,204.56
2023-11-02,15:10:00,204.55
2023-11-02,15:20:00,204.55
2023-11-02,15:30:00,204.54
2023-11-02,15:40:00,204.53
2023-11-02,15:50:00,204.52
2023-11-02,16:00:00,204.52
2023-11-02,16:10:00,204.5
2023-11-02,16:20:00,204.5
2023-11-02,16:30:00,204.49
2023-11-02,16:40:00,204.48
2023-11-02,16:50:00,204.48
2023-11-02,17:00:00,204.47
2023-11-02,17:10:00,204.46
2023-11-02,17:20:00,204.45
2023-11-02,17:30:00,204.44
2023-11-02,17:40:00,204.44
2023-11-02,17:50:00,204.43
2023-11-02,18:00:00,204.42
2023-11-02,18:10:00,204.42
2023-11-02,18:20:00,204.41
2023-11-02,18:30:00,204.4
2023-11-02,18:40:00,204.39
2023-11-02,18:50:00,204.38
2023-11-02,19:00:00,204.38
2023-11-02,19:10:00,204.37
2023-11-02,19:20:00,204.36
2023-11-02,19:30:00,204.36
2023-11-02,19:40:00,204.35
2023-11-02,19:50:00,204.34
2023-11-02,20:00:00,204.34
2023-11-02,20:10:00,204.33
2023-11-02,20:20:00,204.32
2023-11-02,20:30:00,204.31
2023-11-02,20:40:00,204.31
2023-11-02,20:50:00,204.3
2023-11-02,21:00:00,204.29
2023-11-02,21:10:00,204.28
2023-11-02,21:20:00,204.28
2023-11-02,21:30:00,204.27
2023-11-02,21:40:00,204.26
2023-11-02,21:50:00,204.25
2023-11-02,22:00:00,204.25
2023-11-02,22:10:00,204.24
2023-11-02,22:20:00,204.23
2023-11-02,22:30:00,204.23
2023-11-02,22:40:00,204.22
2023-11-02,22:50:00,204.21
2023-11-02,23:00:00,204.2
2023-11-02,23:10:00,204.2
2023-11-02,23:20:00,204.19
2023-11-02,23:30:00,204.18
2023-11-02,23:40:00,204.18
2023-11-02,23:50:00,204.17
2023-11-03,00:00:00,204.16
2023-11-03,00:10:00,204.15
2023-11-03,00:20:00,204.15
2023-11-03,00:30:00,204.14
2023-11-03,00:40:00,204.14
2023-11-03,00:50:00,204.13
2023-11-03,01:00:00,204.12
2023-11-03,01:10:00,204.11
2023-11-03,01:20:00,204.1
2023-11-03,01:30:00,204.1
2023-11-03,01:40:00,204.09
2023-11-03,01:50:00,204.08
2023-11-03,02:00:00,204.07
2023-11-03,02:10:00,204.07
2023-11-03,02:20:00,204.06
2023-11-03,02:30:00,204.05
2023-11-03,02:40:00,204.05
2023-11-03,02:50:00,204.04
2023-11-03,03:00:00,204.03
2023-11-03,03:10:00,204.03
2023-11-03,03:20:00,204.02
2023-11-03,03:30:00,204.01
2023-11-03,03:40:00,204
2023-11-03,03:50:00,204
2023-11-03,04:00:00,203.99
2023-11-03,04:10:00,203.98
2023-11-03,04:20:00,203.97
2023-11-03,04:30:00,203.97
2023-11-03,04:40:00,203.96
2023-11-03,04:50:00,203.95
2023-11-03,05:00:00,203.94
2023-11-03,05:10:00,203.94
2023-11-03,05:20:00,203.93
2023-11-03,05:30:00,203.92
2023-11-03,05:40:00,203.91
2023-11-03,05:50:00,203.91
2023-11-03,06:00:00,203.9
2023-11-03,06:10:00,203.89
2023-11-03,06:20:00,203.89
2023-11-03,06:30:00,203.88
2023-11-03,06:40:00,203.87
2023-11-03,06:50:00,203.86
2023-11-03,07:00:00,203.85
2023-11-03,07:10:00,203.85
2023-11-03,07:20:00,203.84
2023-11-03,07:30:00,203.83
2023-11-03,07:40:00,203.82
2023-11-03,07:50:00,203.82
2023-11-03,08:00:00,203.81
2023-11-03,08:10:00,203.8
2023-11-03,08:20:00,203.79
2023-11-03,08:30:00,203.78
2023-11-03,08:40:00,203.78
2023-11-03,08:50:00,203.77
2023-11-03,09:00:00,203.76
2023-11-03,09:10:00,203.75
2023-11-03,09:20:00,203.74
2023-11-03,09:30:00,203.74
2023-11-03,09:40:00,203.73
2023-11-03,09:50:00,203.72
2023-11-03,10:00:00,203.71
2023-11-03,10:10:00,203.7
2023-11-03,10:20:00,203.7
2023-11-03,10:30:00,203.69
2023-11-03,10:40:00,203.68
2023-11-03,10:50:00,203.67
2023-11-03,11:00:00,203.67
2023-11-03,11:10:00,203.66
2023-11-03,11:20:00,203.65
2023-11-03,11:30:00,203.64
2023-11-03,11:40:00,203.64
2023-11-03,11:50:00,203.63
2023-11-03,12:00:00,203.62
2023-11-03,12:10:00,203.61
2023-11-03,12:20:00,203.6
2023-11-03,12:30:00,203.6
2023-11-03,12:40:00,203.59
2023-11-03,12:50:00,203.59
2023-11-03,13:00:00,203.58
2023-11-03,13:10:00,203.57
2023-11-03,13:20:00,203.57
2023-11-03,13:30:00,203.56
2023-11-03,13:40:00,203.55
2023-11-03,13:50:00,203.54
2023-11-03,14:00:00,203.54
2023-11-03,14:10:00,203.53
2023-11-03,14:20:00,203.53
2023-11-03,14:30:00,203.52
2023-11-03,14:40:00,203.51
2023-11-03,14:50:00,203.5
2023-11-03,15:00:00,203.5
2023-11-03,15:10:00,203.49
2023-11-03,15:20:00,203.48
2023-11-03,15:30:00,203.47
2023-11-03,15:40:00,203.47
2023-11-03,15:50:00,203.46
2023-11-03,16:00:00,203.46
2023-11-03,16:10:00,203.45
2023-11-03,16:20:00,203.44
2023-11-03,16:30:00,203.44
2023-11-03,16:40:00,203.43
2023-11-03,16:50:00,203.43
2023-11-03,17:00:00,203.42
2023-11-03,17:10:00,203.41
2023-11-03,17:20:00,203.41
2023-11-03,17:30:00,203.4
2023-11-03,17:40:00,203.4
2023-11-03,17:50:00,203.39
2023-11-03,18:00:00,203.39
2023-11-03,18:10:00,203.38
2023-11-03,18:20:00,203.37
2023-11-03,18:30:00,203.36
2023-11-03,18:40:00,203.36
2023-11-03,18:50:00,203.36
2023-11-03,19:00:00,203.35
2023-11-03,19:10:00,203.35
2023-11-03,19:20:00,203.34
2023-11-03,19:30:00,203.33
2023-11-03,19:40:00,203.33
2023-11-03,19:50:00,203.32
2023-11-03,20:00:00,203.32
2023-11-03,20:10:00,203.31
2023-11-03,20:20:00,203.31
2023-11-03,20:30:00,203.3
2023-11-03,20:40:00,203.29
2023-11-03,20:50:00,203.29
2023-11-03,21:00:00,203.29
2023-11-03,21:10:00,203.28
2023-11-03,21:20:00,203.27
2023-11-03,21:30:00,203.27
2023-11-03,21:40:00,203.26
2023-11-03,21:50:00,203.25
2023-11-03,22:00:00,203.25
2023-11-03,22:10:00,203.24
2023-11-03,22:20:00,203.24
2023-11-03,22:30:00,203.24
2023-11-03,22:40:00,203.23
2023-11-03,22:50:00,203.23
2023-11-03,23:00:00,203.22
2023-11-03,23:10:00,203.22
2023-11-03,23:20:00,203.21
2023-11-03,23:30:00,203.21
2023-11-03,23:40:00,203.2
2023-11-03,23:50:00,203.2
2023-11-04,00:00:00,203.19
2023-11-04,00:10:00,203.19
2023-11-04,00:20:00,203.18
2023-11-04,00:30:00,203.18
2023-11-04,00:40:00,203.17
2023-11-04,00:50:00,203.16
2023-11-04,01:00:00,203.16
2023-11-04,01:10:00,203.16
2023-11-04,01:20:00,203.15
2023-11-04,01:30:00,203.15
2023-11-04,01:40:00,203.14
2023-11-04,01:50:00,203.13
2023-11-04,02:00:00,203.13
2023-11-04,02:10:00,203.13
2023-11-04,02:20:00,203.13
2023-11-04,02:30:00,203.12
2023-11-04,02:40:00,203.12
2023-11-04,02:50:00,203.11
2023-11-04,03:00:00,203.11
2023-11-04,03:10:00,203.1
2023-11-04,03:20:00,203.1
2023-11-04,03:30:00,203.09
2023-11-04,03:40:00,203.09
2023-11-04,03:50:00,203.09
2023-11-04,04:00:00,203.08
2023-11-04,04:10:00,203.08
2023-11-04,04:20:00,203.07
2023-11-04,04:30:00,203.06
2023-11-04,04:40:00,203.06
2023-11-04,04:50:00,203.06
2023-11-04,05:00:00,203.06
2023-11-04,05:10:00,203.05
2023-11-04,05:20:00,203.05
2023-11-04,05:30:00,203.04
2023-11-04,05:40:00,203.04
2023-11-04,05:50:00,203.03
2023-11-04,06:00:00,203.03
2023-11-04,06:10:00,203.03
2023-11-04,06:20:00,203.02
2023-11-04,06:30:00,203.02
2023-11-04,06:40:00,203.01
2023-11-04,06:50:00,203.01
2023-11-04,07:00:00,203.01
2023-11-04,07:10:00,203
2023-11-04,07:20:00,203
2023-11-04,07:30:00,203
2023-11-04,07:40:00,202.99
2023-11-04,07:50:00,202.99
2023-11-04,08:00:00,202.98
2023-11-04,08:10:00,202.98
2023-11-04,08:20:00,202.97
2023-11-04,08:30:00,202.97
2023-11-04,08:40:00,202.97
2023-11-04,08:50:00,202.96
2023-11-04,09:00:00,202.96
2023-11-04,09:10:00,202.95
2023-11-04,09:20:00,202.95
2023-11-04,09:30:00,202.95
2023-11-04,09:40:00,202.94
2023-11-04,09:50:00,202.94
2023-11-04,10:00:00,202.93
2023-11-04,10:10:00,202.93
2023-11-04,10:20:00,202.92
2023-11-04,10:30:00,202.92
2023-11-04,10:40:00,202.92
2023-11-04,10:50:00,202.91
2023-11-04,11:00:00,202.91
2023-11-04,11:10:00,202.9
2023-11-04,11:20:00,202.9
2023-11-04,11:30:00,202.9
2023-11-04,11:40:00,202.89
2023-11-04,11:50:00,202.89
2023-11-04,12:00:00,202.89
2023-11-04,12:10:00,202.88
2023-11-04,12:20:00,202.87
2023-11-04,12:30:00,202.87
2023-11-04,12:40:00,202.87
2023-11-04,12:50:00,202.86
2023-11-04,13:00:00,202.86
2023-11-04,13:10:00,202.86
2023-11-04,13:20:00,202.85
2023-11-04,13:30:00,202.85
2023-11-04,13:40:00,202.85
2023-11-04,13:50:00,202.84
2023-11-04,14:00:00,202.84
2023-11-04,14:10:00,202.84
2023-11-04,14:20:00,202.83
2023-11-04,14:30:00,202.83
2023-11-04,14:40:00,202.83
2023-11-04,14:50:00,202.82
2023-11-04,15:00:00,202.82
2023-11-04,15:10:00,202.81
2023-11-04,15:20:00,202.81
2023-11-04,15:30:00,202.81
2023-11-04,15:40:00,202.81
2023-11-04,15:50:00,202.81
2023-11-04,16:00:00,202.8
2023-11-04,16:10:00,202.79
2023-11-04,16:20:00,202.79
2023-11-04,16:30:00,202.79
2023-11-04,16:40:00,202.78
2023-11-04,16:50:00,202.78
2023-11-04,17:00:00,202.78
2023-11-04,17:10:00,202.77
2023-11-04,17:20:00,202.77
2023-11-04,17:30:00,202.77
2023-11-04,17:40:00,202.77
2023-11-04,17:50:00,202.76
2023-11-04,18:00:00,202.76
2023-11-04,18:10:00,202.75
2023-11-04,18:20:00,202.75
2023-11-04,18:30:00,202.75
2023-11-04,18:40:00,202.75
2023-11-04,18:50:00,202.75
2023-11-04,19:00:00,202.74
2023-11-04,19:10:00,202.74
2023-11-04,19:20:00,202.74
2023-11-04,19:30:00,202.73
2023-11-04,19:40:00,202.73
2023-11-04,19:50:00,202.73
2023-11-04,20:00:00,202.72
2023-11-04,20:10:00,202.72
2023-11-04,20:20:00,202.72
2023-11-04,20:30:00,202.71
2023-11-04,20:40:00,202.71
2023-11-04,20:50:00,202.71
2023-11-04,21:00:00,202.71
2023-11-04,21:10:00,202.7
2023-11-04,21:20:00,202.7
2023-11-04,21:30:00,202.69
2023-11-04,21:40:00,202.69
2023-11-04,21:50:00,202.69
2023-11-04,22:00:00,202.68
2023-11-04,22:10:00,202.68
2023-11-04,22:20:00,202.68
2023-11-04,22:30:00,202.68
2023-11-04,22:40:00,202.68
2023-11-04,22:50:00,202.67
2023-11-04,23:00:00,202.67
2023-11-04,23:10:00,202.66
2023-11-04,23:20:00,202.66
2023-11-04,23:30:00,202.66
2023-11-04,23:40:00,202.66
2023-11-04,23:50:00,202.65
2023-11-05,00:00:00,202.65
2023-11-05,00:10:00,202.65
2023-11-05,00:20:00,202.64
2023-11-05,00:30:00,202.64
2023-11-05,00:40:00,202.64
2023-11-05,00:50:00,202.64
2023-11-05,01:00:00,202.63
2023-11-05,01:10:00,202.63
2023-11-05,01:20:00,202.63
2023-11-05,01:30:00,202.63
2023-11-05,01:40:00,202.62
2023-11-05,01:50:00,202.62
2023-11-05,02:00:00,202.62
2023-11-05,02:10:00,202.62
2023-11-05,02:20:00,202.61
2023-11-05,02:30:00,202.61
2023-11-05,02:40:00,202.6
2023-11-05,02:50:00,202.61
2023-11-05,03:00:00,202.6
2023-11-05,03:10:00,202.6
2023-11-05,03:20:00,202.6
2023-11-05,03:30:00,202.59
2023-11-05,03:40:00,202.59
2023-11-05,03:50:00,202.59
2023-11-05,04:00:00,202.59
2023-11-05,04:10:00,202.58
2023-11-05,04:20:00,202.58
2023-11-05,04:30:00,202.58
2023-11-05,04:40:00,202.58
2023-11-05,04:50:00,202.57
2023-11-05,05:00:00,202.57
2023-11-05,05:10:00,202.57
2023-11-05,05:20:00,202.57
2023-11-05,05:30:00,202.57
2023-11-05,05:40:00,202.56
2023-11-05,05:50:00,202.56
2023-11-05,06:00:00,202.56
2023-11-05,06:10:00,202.55
2023-11-05,06:20:00,202.55
2023-11-05,06:30:00,202.55
2023-11-05,06:40:00,202.55
2023-11-05,06:50:00,202.55
2023-11-05,07:00:00,202.54
2023-11-05,07:10:00,202.54
2023-11-05,07:20:00,202.54
2023-11-05,07:30:00,202.54
2023-11-05,07:40:00,202.53
2023-11-05,07:50:00,202.53
2023-11-05,08:00:00,202.53
2023-11-05,08:10:00,202.52
2023-11-05,08:20:00,202.52
2023-11-05,08:30:00,202.52
2023-11-05,08:40:00,202.52
2023-11-05,08:50:00,202.51
2023-11-05,09:00:00,202.51
2023-11-05,09:10:00,202.51
2023-11-05,09:20:00,202.51
2023-11-05,09:30:00,202.5
2023-11-05,09:40:00,202.5
2023-11-05,09:50:00,202.5
2023-11-05,10:00:00,202.49
2023-11-05,10:10:00,202.49
2023-11-05,10:20:00,202.49
2023-11-05,10:30:00,202.49
2023-11-05,10:40:00,202.48
2023-11-05,10:50:00,202.48
2023-11-05,11:00:00,202.48
2023-11-05,11:10:00,202.47
2023-11-05,11:20:00,202.47
2023-11-05,11:30:00,202.47
2023-11-05,11:40:00,202.47
2023-11-05,11:50:00,202.46
2023-11-05,12:00:00,202.46
2023-11-05,12:10:00,202.46
2023-11-05,12:20:00,202.45
2023-11-05,12:30:00,202.45
2023-11-05,12:40:00,202.45
2023-11-05,12:50:00,202.45
2023-11-05,13:00:00,202.44
2023-11-05,13:10:00,202.44
2023-11-05,13:20:00,202.44
2023-11-05,13:30:00,202.44
2023-11-05,13:40:00,202.43
2023-11-05,13:50:00,202.43
2023-11-05,14:00:00,202.43
2023-11-05,14:10:00,202.43
2023-11-05,14:20:00,202.43
2023-11-05,14:30:00,202.42
2023-11-05,14:40:00,202.42
2023-11-05,14:50:00,202.42
2023-11-05,15:00:00,202.42
2023-11-05,15:10:00,202.42
2023-11-05,15:20:00,202.41
2023-11-05,15:30:00,202.41
2023-11-05,15:40:00,202.41
2023-11-05,15:50:00,202.41
2023-11-05,16:00:00,202.41
2023-11-05,16:10:00,202.4
2023-11-05,16:20:00,202.4
2023-11-05,16:30:00,202.4
2023-11-05,16:40:00,202.4
2023-11-05,16:50:00,202.4
2023-11-05,17:00:00,202.4
2023-11-05,17:10:00,202.39
2023-11-05,17:20:00,202.39
2023-11-05,17:30:00,202.39
2023-11-05,17:40:00,202.39
2023-11-05,17:50:00,202.39
2023-11-05,18:00:00,202.38
2023-11-05,18:10:00,202.39
2023-11-05,18:20:00,202.39
2023-11-05,18:30:00,202.38
2023-11-05,18:40:00,202.38
2023-11-05,18:50:00,202.38
2023-11-05,19:00:00,202.37
2023-11-05,19:10:00,202.37
2023-11-05,19:20:00,202.37
2023-11-05,19:30:00,202.37
2023-11-05,19:40:00,202.37
2023-11-05,19:50:00,202.36
2023-11-05,20:00:00,202.36
2023-11-05,20:10:00,202.36
2023-11-05,20:20:00,202.36
2023-11-05,20:30:00,202.36
2023-11-05,20:40:00,202.35
2023-11-05,20:50:00,202.35
2023-11-05,21:00:00,202.35
2023-11-05,21:10:00,202.35
2023-11-05,21:20:00,202.34
2023-11-05,21:30:00,202.34
2023-11-05,21:40:00,202.34
2023-11-05,21:50:00,202.34
2023-11-05,22:00:00,202.33
2023-11-05,22:10:00,202.33
2023-11-05,22:20:00,202.33
2023-11-05,22:30:00,202.33
2023-11-05,22:40:00,202.32
2023-11-05,22:50:00,202.32
2023-11-05,23:00:00,202.32
2023-11-05,23:10:00,202.32
2023-11-05,23:20:00,202.32
2023-11-05,23:30:00,202.32
2023-11-05,23:40:00,202.31
2023-11-05,23:50:00,202.31
2023-11-06,00:00:00,202.31
2023-11-06,00:10:00,202.31
2023-11-06,00:20:00,202.31
2023-11-06,00:30:00,202.31
2023-11-06,00:40:00,202.3
2023-11-06,00:50:00,202.3
2023-11-06,01:00:00,202.3
2023-11-06,01:10:00,202.3
2023-11-06,01:20:00,202.3
2023-11-06,01:30:00,202.29
2023-11-06,01:40:00,202.29
2023-11-06,01:50:00,202.29
2023-11-06,02:00:00,202.29
2023-11-06,02:10:00,202.29
2023-11-06,02:20:00,202.28
2023-11-06,02:30:00,202.28
2023-11-06,02:40:00,202.28
2023-11-06,02:50:00,202.28
2023-11-06,03:00:00,202.28
2023-11-06,03:10:00,202.27
2023-11-06,03:20:00,202.27
2023-11-06,03:30:00,202.27
2023-11-06,03:40:00,202.27
2023-11-06,03:50:00,202.26
2023-11-06,04:00:00,202.26
2023-11-06,04:10:00,202.26
2023-11-06,04:20:00,202.26
2023-11-06,04:30:00,202.26
2023-11-06,04:40:00,202.26
2023-11-06,04:50:00,202.25
2023-11-06,05:00:00,202.25
2023-11-06,05:10:00,202.25
2023-11-06,05:20:00,202.25
2023-11-06,05:30:00,202.25
2023-11-06,05:40:00,202.25
2023-11-06,05:50:00,202.25
2023-11-06,06:00:00,202.24
2023-11-06,06:10:00,202.24
2023-11-06,06:20:00,202.24
2023-11-06,06:30:00,202.24
2023-11-06,06:40:00,202.24
2023-11-06,06:50:00,202.24
2023-11-06,07:00:00,202.24
2023-11-06,07:10:00,202.23
2023-11-06,07:20:00,202.23
2023-11-06,07:30:00,202.23
2023-11-06,07:40:00,202.23
2023-11-06,07:50:00,202.23
2023-11-06,08:00:00,202.22
2023-11-06,08:10:00,202.22
2023-11-06,08:20:00,202.22
2023-11-06,08:30:00,202.22
2023-11-06,08:40:00,202.22
2023-11-06,08:50:00,202.21
2023-11-06,09:00:00,202.21
2023-11-06,09:10:00,202.21
2023-11-06,09:20:00,202.2
2023-11-06,09:30:00,202.2
2023-11-06,09:40:00,202.2
2023-11-06,09:50:00,202.2
2023-11-06,10:00:00,202.2
2023-11-06,10:10:00,202.2
2023-11-06,10:20:00,202.19
2023-11-06,10:30:00,202.19
2023-11-06,10:40:00,202.19
2023-11-06,10:50:00,202.19
2023-11-06,11:00:00,202.18
2023-11-06,11:10:00,202.18
2023-11-06,11:20:00,202.18
2023-11-06,11:30:00,202.18
2023-11-06,11:40:00,202.17
2023-11-06,11:50:00,202.17
2023-11-06,12:00:00,202.17
2023-11-06,12:10:00,202.17
2023-11-06,12:20:00,202.17
2023-11-06,12:30:00,202.17
2023-11-06,12:40:00,202.17
2023-11-06,12:50:00,202.16
2023-11-06,13:00:00,202.16
2023-11-06,13:10:00,202.16
2023-11-06,13:20:00,202.16
2023-11-06,13:30:00,202.16
2023-11-06,13:40:00,202.16
2023-11-06,13:50:00,202.15
2023-11-06,14:00:00,202.15
2023-11-06,14:10:00,202.15
2023-11-06,14:20:00,202.14
2023-11-06,14:30:00,202.14
2023-11-06,14:40:00,202.14
2023-11-06,14:50:00,202.14
2023-11-06,15:00:00,202.14
2023-11-06,15:10:00,202.14
2023-11-06,15:20:00,202.13
2023-11-06,15:30:00,202.13
2023-11-06,15:40:00,202.13
2023-11-06,15:50:00,202.13
2023-11-06,16:00:00,202.13
2023-11-06,16:10:00,202.13
2023-11-06,16:20:00,202.12
2023-11-06,16:30:00,202.12
2023-11-06,16:40:00,202.12
2023-11-06,16:50:00,202.11
2023-11-06,17:00:00,202.12
2023-11-06,17:10:00,202.11
2023-11-06,17:20:00,202.11
2023-11-06,17:30:00,202.11
2023-11-06,17:40:00,202.11
2023-11-06,17:50:00,202.11
2023-11-06,18:00:00,202.11
2023-11-06,18:10:00,202.1
2023-11-06,18:20:00,202.1
2023-11-06,18:30:00,202.1
2023-11-06,18:40:00,202.1
2023-11-06,18:50:00,202.1
2023-11-06,19:00:00,202.1
2023-11-06,19:10:00,202.09
2023-11-06,19:20:00,202.09
2023-11-06,19:30:00,202.09
2023-11-06,19:40:00,202.09
2023-11-06,19:50:00,202.09
2023-11-06,20:00:00,202.09
2023-11-06,20:10:00,202.08
2023-11-06,20:20:00,202.08
2023-11-06,20:30:00,202.08
2023-11-06,20:40:00,202.08
2023-11-06,20:50:00,202.08
2023-11-06,21:00:00,202.08
2023-11-06,21:10:00,202.08
2023-11-06,21:20:00,202.07
2023-11-06,21:30:00,202.07
2023-11-06,21:40:00,202.07
2023-11-06,21:50:00,202.07
2023-11-06,22:00:00,202.07
2023-11-06,22:10:00,202.07
2023-11-06,22:20:00,202.07
2023-11-06,22:30:00,202.07
2023-11-06,22:40:00,202.06
2023-11-06,22:50:00,202.06
2023-11-06,23:00:00,202.06
2023-11-06,23:10:00,202.06
2023-11-06,23:20:00,202.06
2023-11-06,23:30:00,202.06
2023-11-06,23:40:00,202.06
2023-11-06,23:50:00,202.06
2023-11-07,00:00:00,202.06
2023-11-07,00:10:00,202.06
2023-11-07,00:20:00,202.06
2023-11-07,00:30:00,202.06
2023-11-07,00:40:00,202.06
2023-11-07,00:50:00,202.06
2023-11-07,01:00:00,202.06
2023-11-07,01:10:00,202.06
2023-11-07,01:20:00,202.06
2023-11-07,01:30:00,202.06
2023-11-07,01:40:00,202.06
2023-11-07,01:50:00,202.06
2023-11-07,02:00:00,202.06
2023-11-07,02:10:00,202.06
2023-11-07,02:20:00,202.06
2023-11-07,02:30:00,202.06
2023-11-07,02:40:00,202.06
2023-11-07,02:50:00,202.06
2023-11-07,03:00:00,202.06
2023-11-07,03:10:00,202.06
2023-11-07,03:20:00,202.06
2023-11-07,03:30:00,202.06
2023-11-07,03:40:00,202.05
2023-11-07,03:50:00,202.06
2023-11-07,04:00:00,202.06
2023-11-07,04:10:00,202.06
2023-11-07,04:20:00,202.06